Whiteville, NC

9:43 AM EST on January 22, 2018 (GMT -0500)
Columbus County Municipal

Weather History for KCPC - September, 2013

Change the Weather History Date:

Wednesday, September 11, 2013

  Actual Average (KCRE) Record (KCRE)
Temperature  
Mean Temperature 76 °F -  
Max Temperature 88 °F 81 °F 94 °F (2002)
Min Temperature 65 °F 65 °F 50 °F (1956)
Cooling Degree Days 12    
Growing Degree Days 26 (Base 50)    
Moisture  
Dew Point 67 °F    
Average Humidity 79    
Maximum Humidity 97    
Minimum Humidity 46    
Precipitation  
Precipitation 0.00 in - - ()
Sea Level Pressure  
Sea Level Pressure 30.16 in    
Wind  
Wind Speed 1 mph (East)    
Max Wind Speed 8 mph    
Max Gust Speed -    
Visibility 7 miles    
Events      
Averages and records for this station are not official NWS values.
T = Trace of Precipitation, MM = Missing Value Source: NWS Daily Summary

Daily Weather History Graph

Daily Weather History Graph

Search for Another Location

Airport or City:

Trip Planner

Search our weather history database for the weather conditions in past years. The results will help you decide how hot, cold, wet, or windy it might be!

Date:

Astronomy

Sep. 11, 2013 Rise Set
Actual Time 6:55 AM EDT 7:26 PM EDT
Civil Twilight 6:30 AM EDT 7:52 PM EDT
Nautical Twilight 6:00 AM EDT 8:21 PM EDT
Astronomical Twilight 5:30 AM EDT 8:51 PM EDT
Moon 1:04 PM EDT (9/11) 11:38 PM EDT (9/11)
Length of Visible Light 13h 21m
Length of Day
12h 31m
Waxing Crescent, 38% of the Moon is Illuminated
Sep 11
Waxing Crescent
Sep 12
First Quarter
Sep 19
Full
Sep 26
Last Quarter
Oct 4
New

Hourly Weather History & Observations

Time (EDT) Temp. Heat Index Dew Point Humidity Pressure Visibility Wind Dir Wind Speed Gust Speed Precip Events Conditions
12:15 AM 69.8 °F - 67.3 °F 92% 30.21 in 7.0 mi Calm Calm - N/A   Clear
12:35 AM 68.9 °F - 67.1 °F 94% 30.21 in 5.0 mi Calm Calm - N/A   Clear
12:55 AM 68.2 °F - 66.6 °F 95% 30.20 in 5.0 mi Calm Calm - N/A   Clear
1:15 AM 68.2 °F - 66.6 °F 95% 30.20 in 5.0 mi Calm Calm - N/A   Clear
1:35 AM 68.0 °F - 66.4 °F 95% 30.19 in 4.0 mi Calm Calm - N/A   Clear
1:55 AM 67.6 °F - 66.4 °F 96% 30.19 in 4.0 mi Calm Calm - N/A   Clear
2:15 AM 67.5 °F - 66.2 °F 96% 30.19 in 4.0 mi Calm Calm - N/A   Clear
2:35 AM 67.1 °F - 65.8 °F 96% 30.19 in 3.0 mi Calm Calm - N/A   Clear
2:55 AM 66.7 °F - 65.7 °F 96% 30.19 in 2.5 mi Calm Calm - N/A   Clear
3:15 AM 67.3 °F - 66.2 °F 96% 30.19 in 4.0 mi Calm Calm - N/A   Clear
3:35 AM 66.6 °F - 65.5 °F 96% 30.18 in 2.5 mi Calm Calm - N/A   Clear
3:55 AM 66.7 °F - 65.7 °F 96% 30.18 in 3.0 mi Calm Calm - N/A   Clear
4:15 AM 66.2 °F - 65.3 °F 97% 30.19 in 3.0 mi Calm Calm - N/A   Clear
4:35 AM 66.2 °F - 65.1 °F 96% 30.19 in 3.0 mi Calm Calm - N/A   Clear
4:55 AM 65.7 °F - 64.6 °F 96% 30.19 in 3.0 mi Calm Calm - N/A   Clear
5:15 AM 65.3 °F - 64.4 °F 97% 30.19 in 2.5 mi Calm Calm - N/A   Clear
5:35 AM 66.2 °F - 65.3 °F 97% 30.19 in 4.0 mi Calm Calm - N/A   Clear
5:55 AM 65.5 °F - 64.4 °F 96% 30.19 in 4.0 mi Calm Calm - N/A   Clear
6:15 AM 66.4 °F - 65.3 °F 96% 30.19 in 4.0 mi Calm Calm - N/A   Clear
6:35 AM 66.2 °F - 64.8 °F 95% 30.19 in 5.0 mi Calm Calm - N/A   Clear
6:55 AM 66.7 °F - 65.5 °F 96% 30.19 in 2.5 mi Calm Calm - N/A   Clear
7:15 AM 66.4 °F - 65.1 °F 96% 30.19 in 3.0 mi Calm Calm - N/A   Clear
7:35 AM 66.9 °F - 65.5 °F 95% 30.20 in 3.0 mi Calm Calm - N/A   Clear
7:55 AM 68.0 °F - 66.4 °F 95% 30.21 in 4.0 mi Calm Calm - N/A   Clear
8:15 AM 69.4 °F - 67.8 °F 95% 30.21 in 4.0 mi Calm Calm - N/A   Clear
8:35 AM 70.5 °F - 68.5 °F 93% 30.21 in 4.0 mi Calm Calm - N/A   Clear
8:55 AM 71.8 °F - 69.4 °F 92% 30.22 in 4.0 mi Calm Calm - N/A   Clear
9:15 AM 74.7 °F - 70.9 °F 88% 30.21 in 7.0 mi Calm Calm - N/A   Clear
9:35 AM 75.0 °F - 71.4 °F 89% 30.22 in 7.0 mi Calm Calm - N/A   Clear
9:55 AM 75.2 °F - 71.2 °F 87% 30.22 in 7.0 mi Calm Calm - N/A   Clear
10:15 AM 76.8 °F - 72.1 °F 85% 30.21 in 7.0 mi Calm Calm - N/A   Clear
10:35 AM 78.1 °F - 72.1 °F 82% 30.21 in 7.0 mi Calm Calm - N/A   Clear
10:55 AM 80.2 °F 84.0 °F 71.8 °F 75% 30.21 in 10.0 mi ENE 3.5 mph - N/A   Clear
11:15 AM 82.0 °F 85.1 °F 68.2 °F 63% 30.21 in 7.0 mi East 3.5 mph - N/A   Clear
11:35 AM 82.4 °F 85.2 °F 67.8 °F 61% 30.21 in 10.0 mi Calm Calm - N/A   Clear
11:55 AM 82.4 °F 84.8 °F 66.7 °F 59% 30.20 in 7.0 mi ENE 3.5 mph - N/A   Clear
12:15 PM 83.7 °F 86.5 °F 67.6 °F 58% 30.19 in 10.0 mi Calm Calm - N/A   Clear
12:35 PM 84.4 °F 87.6 °F 68.0 °F 58% 30.19 in 10.0 mi ENE 5.8 mph - N/A   Clear
12:55 PM 83.8 °F 86.7 °F 67.8 °F 58% 30.18 in 10.0 mi ESE 5.8 mph - N/A   Clear
1:15 PM 85.6 °F 86.3 °F 62.8 °F 46% 30.18 in 10.0 mi ESE 3.5 mph - N/A   Clear
1:35 PM 86.0 °F 88.5 °F 66.7 °F 52% 30.17 in 10.0 mi East 6.9 mph - N/A   Clear
1:55 PM 86.7 °F 89.9 °F 67.6 °F 53% 30.16 in 10.0 mi East 5.8 mph - N/A   Clear
2:15 PM 86.5 °F 89.6 °F 67.5 °F 53% 30.16 in 10.0 mi East 5.8 mph - N/A   Clear
2:35 PM 87.4 °F 90.5 °F 67.3 °F 51% 30.15 in 10.0 mi East 8.1 mph - N/A   Scattered Clouds
2:55 PM 87.3 °F 90.2 °F 66.9 °F 51% 30.14 in 10.0 mi East 5.8 mph - N/A   Scattered Clouds
3:15 PM 86.7 °F 89.3 °F 66.7 °F 51% 30.13 in 10.0 mi ENE 6.9 mph - N/A   Scattered Clouds
3:35 PM 87.1 °F 89.9 °F 66.7 °F 51% 30.13 in 10.0 mi East 8.1 mph - N/A   Scattered Clouds
3:55 PM 87.1 °F 89.5 °F 66.2 °F 50% 30.12 in 7.0 mi East 4.6 mph - N/A   Clear
4:15 PM 87.3 °F 88.9 °F 64.8 °F 47% 30.12 in 7.0 mi ENE 8.1 mph - N/A   Clear
4:35 PM 86.5 °F 88.7 °F 66.0 °F 50% 30.12 in 10.0 mi ESE 6.9 mph - N/A   Clear
4:55 PM 88.0 °F 90.7 °F 66.6 °F 49% 30.11 in 10.0 mi East 5.8 mph - N/A   Scattered Clouds
5:15 PM 85.6 °F 89.1 °F 68.2 °F 56% 30.11 in 10.0 mi ESE 6.9 mph - N/A   Scattered Clouds
5:35 PM 85.5 °F 88.5 °F 67.6 °F 55% 30.11 in 10.0 mi ESE 6.9 mph - N/A   Scattered Clouds
5:55 PM 84.2 °F 87.3 °F 67.8 °F 58% 30.11 in 10.0 mi ESE 8.1 mph - N/A   Clear
6:15 PM 83.5 °F 86.2 °F 67.5 °F 58% 30.11 in 10.0 mi SE 6.9 mph - N/A   Clear
6:35 PM 81.9 °F 84.1 °F 66.2 °F 59% 30.10 in 10.0 mi ESE 5.8 mph - N/A   Clear
6:55 PM 80.6 °F 82.7 °F 65.8 °F 61% 30.11 in 10.0 mi ESE 3.5 mph - N/A   Clear
7:15 PM 79.7 °F - 66.2 °F 63% 30.10 in 10.0 mi Calm Calm - N/A   Clear
7:35 PM 76.6 °F - 67.3 °F 73% 30.10 in 10.0 mi Calm Calm - N/A   Clear
7:55 PM 75.2 °F - 67.8 °F 78% 30.11 in 10.0 mi Calm Calm - N/A   Clear
8:15 PM 74.8 °F - 67.3 °F 77% 30.11 in 10.0 mi Calm Calm - N/A   Clear
8:35 PM 72.7 °F - 67.6 °F 84% 30.11 in 10.0 mi Calm Calm - N/A   Clear
8:55 PM 72.7 °F - 67.5 °F 84% 30.11 in 10.0 mi Calm Calm - N/A   Clear
9:15 PM 72.0 °F - 67.3 °F 85% 30.12 in 10.0 mi Calm Calm - N/A   Clear
9:35 PM 70.7 °F - 67.5 °F 89% 30.12 in 10.0 mi Calm Calm - N/A   Clear
9:55 PM 70.3 °F - 67.5 °F 91% 30.11 in 10.0 mi Calm Calm - N/A   Scattered Clouds
10:15 PM 69.6 °F - 67.3 °F 92% 30.12 in 7.0 mi Calm Calm - N/A   Clear
10:35 PM 69.1 °F - 66.7 °F 92% 30.11 in 7.0 mi Calm Calm - N/A   Clear
10:55 PM 68.9 °F - 67.1 °F 94% 30.11 in 7.0 mi Calm Calm - N/A   Clear
11:15 PM 68.5 °F - 66.7 °F 94% 30.11 in 7.0 mi Calm Calm - N/A   Clear
11:35 PM 69.3 °F - 66.7 °F 92% 30.11 in 7.0 mi Calm Calm - N/A   Clear
11:55 PM 68.5 °F - 66.2 °F 92% 30.10 in 7.0 mi Calm Calm - N/A   Clear